{"data":{"norad_id":65982,"intl_designator":"2025-230J","name":"SDA_1672","alt_names":[],"object_type":"PAYLOAD","status":"ACTIVE","operator":null,"country":"US","launch_date":"2025-10-15","launch_site_code":"AFWTR","launch_vehicle":null,"mission":null,"orbit_class":"UNKNOWN","rcs_meters":null,"size_class":null,"mass_kg":null,"dimensions":null,"purposes":[],"wikipedia_slug":null,"has_3d_model":false,"image_url":null,"decayed_at":null,"tle_current":{"epoch":"2026-05-24T23:08:17.585088Z","epoch_age_seconds":81300,"freshness":"FRESH","line1":"1 65982U 25230J   26144.96409242  .00000142  00000+0  12115-3 0  9994","line2":"2 65982  81.3024 233.4695 0001417 111.4660 248.6647 13.82251964 30588","mean_motion":13.82251964,"eccentricity":0.0001417,"inclination_deg":81.3024,"raan_deg":233.4695,"arg_perigee_deg":111.466,"mean_anomaly_deg":248.6647,"bstar":0.00012115,"rev_number":3058,"period_min":104.17782267662,"perigee_km":954.87091304738,"apogee_km":956.94938200899,"semimajor_km":7334.0471475282,"source":"CELESTRAK","updated_at":"2026-05-25T13:38:05.878535Z"}}}